User: anonymous   Login
Location: Unspecified
(0.0000°N, 0.0000°E)
Time: 18:09:37
(UTC+00:00)
Language:

WGS F1 (USA 195) - Orbit

View from above orbital plane
View from above orbital plane
View from above satellite
View from above satellite

Ground track
Ground track

The orbit data is extracted from the following two-line orbital elements,

1 32258U 07046A   21136.52202421  .00000050  00000-0  00000-0 0  9993
2 32258   0.0340 110.8462 0000233 267.8209  49.7191  1.00271596 33742
Epoch (UTC): 16 May 2021 12:31:42
Eccentricity: 0.0000233
inclination: 0.0340°
perigee height: 35785 km
apogee height: 35787 km
right ascension of ascending node: 110.8462°
argument of perigee: 267.8209°
revolutions per day: 1.00271596
mean anomaly at epoch: 49.7191°
orbit number at epoch: 3374

The dashed part of the orbit path shows where the satellite is in the earth's shadow,  

DLR